period_start,C,m1,H,J0,J1,J2,J3,J4,J5,JA,JB,JC,JD,JJ,JK,JN,#
2013-07-04 06:19:46,-16666.47,0.03,0.00,23.64,23.60,24.30,27.66,73.38,1002.01,2079.27,3524.38,3372.41,3673.74,1000.03,910.39,0.05,0000 0000 0000 0000 000000
2013-07-04 06:20:46,0.09,0.05,0.00,23.71,23.60,24.56,27.41,73.04,1002.01,2078.90,3520.04,3367.26,3668.01,1000.25,910.34,0.06,0000 0000 0000 0000 000000
2013-07-04 06:21:46,0.11,0.06,0.00,23.74,23.61,24.78,27.47,72.96,1002.02,2078.49,3517.60,3364.56,3664.94,999.29,909.24,0.08,0000 0000 0000 0000 000000
2013-07-04 06:22:46,0.11,0.07,0.00,23.79,23.62,24.96,27.32,73.04,1002.05,2078.26,3515.98,3362.89,3663.05,999.66,909.37,0.10,0000 0000 0000 0000 000000
2013-07-04 06:23:46,0.12,0.07,0.00,23.91,23.62,25.15,27.48,73.08,1002.25,2078.13,3514.66,3361.51,3661.54,999.69,909.38,0.11,0000 0000 0000 0000 000000
2013-07-04 06:24:46,0.12,0.08,0.00,23.92,23.62,25.31,27.38,72.83,1002.33,2078.04,3513.48,3360.28,3660.14,999.04,908.90,0.13,0000 0000 0000 0000 000000
2013-07-04 06:25:47,0.12,0.08,0.00,23.98,23.62,25.46,27.43,73.04,1002.36,2078.01,3512.38,3359.22,3658.85,999.64,909.30,0.15,0000 0000 0000 0000 000000
2013-07-04 06:26:47,0.13,0.08,0.00,24.03,23.62,25.58,27.58,72.92,1002.41,2078.00,3511.46,3358.20,3657.72,999.89,909.41,0.17,0000 0000 0000 0000 000000
2013-07-04 06:27:47,0.13,0.08,0.00,24.06,23.63,25.70,27.53,73.00,1002.42,2078.00,3510.57,3357.30,3656.67,999.80,909.26,0.18,0000 0000 0000 0000 000000
2013-07-04 06:28:47,0.13,0.09,0.00,24.12,23.64,25.81,27.57,73.00,1002.44,2078.00,3509.69,3356.43,3655.63,1000.22,909.67,0.20,0000 0000 0000 0000 000000
2013-07-04 06:29:48,0.13,0.09,0.00,24.11,23.65,25.90,27.52,72.92,1002.45,2078.00,3508.78,3355.51,3654.57,999.51,908.86,0.22,0000 0000 0000 0000 000000
2013-07-04 06:30:48,0.13,0.09,0.00,24.08,23.65,25.99,27.73,73.13,1002.45,2078.00,3507.92,3354.53,3653.46,1000.10,909.50,0.23,0000 0000 0000 0000 000000
2013-07-04 06:31:48,0.14,0.09,0.00,24.11,23.65,26.08,27.55,72.92,1002.46,2077.99,3506.92,3353.62,3652.41,999.49,908.86,0.25,0000 0000 0000 0000 000000
2013-07-04 06:32:48,0.14,0.10,0.00,24.16,23.67,26.16,27.59,72.96,1002.46,2077.98,3506.15,3352.76,3651.33,999.99,909.16,0.27,0000 0000 0000 0000 000000
2013-07-04 06:33:49,0.14,0.10,0.00,24.20,23.68,26.24,27.67,72.96,1002.46,2077.97,3505.32,3351.82,3650.28,1000.05,909.07,0.28,0000 0000 0000 0000 000000
2013-07-04 06:34:49,0.14,0.10,0.00,24.25,23.69,26.31,27.77,73.13,1002.46,2077.94,3504.51,3350.88,3649.25,1000.57,909.41,0.30,0000 0000 0000 0000 000000
2013-07-04 06:35:49,0.14,0.10,0.00,24.34,23.70,26.38,27.58,72.83,1002.46,2077.89,3503.72,3350.10,3648.34,1000.30,908.88,0.32,0000 0000 0000 0000 000000
2013-07-04 06:36:49,0.14,0.11,0.00,24.37,23.72,26.44,27.55,73.04,1002.46,2077.75,3502.92,3349.28,3647.45,999.71,908.27,0.33,0000 0000 0000 0000 000000
2013-07-04 06:37:49,0.13,0.11,0.00,24.34,23.73,26.50,27.63,73.04,1002.47,2077.66,3501.92,3348.25,3646.38,1000.05,908.59,0.35,0000 0000 0000 0000 000000
2013-07-04 06:38:50,0.14,0.11,0.00,24.29,23.75,26.56,27.68,72.75,1002.47,2077.50,3500.81,3347.05,3644.95,1000.37,909.04,0.37,0000 0000 0000 0000 000000
2013-07-04 06:39:50,0.15,0.11,0.00,24.34,23.76,26.62,27.49,73.00,1002.47,2077.63,3497.76,3343.36,3640.66,999.53,908.20,0.38,0000 0000 0000 0000 000000
2013-07-04 06:40:50,0.38,0.13,0.00,24.33,23.79,26.65,27.70,73.21,1002.47,2077.83,3480.17,3320.94,3615.50,1003.18,911.53,0.40,0000 0000 0000 0000 000000
2013-07-04 06:41:51,1.40,0.19,0.00,24.37,23.79,26.69,27.82,73.67,1002.46,2077.60,3469.03,3307.02,3600.07,1000.91,909.41,0.42,0000 0000 0000 0000 000000
2013-07-04 06:42:51,1.57,0.22,0.00,24.37,23.81,26.73,27.53,73.46,1002.49,2077.28,3464.34,3301.18,3593.61,999.45,908.05,0.43,0000 0000 0000 0000 000000
2013-07-04 06:43:51,1.26,0.23,0.00,24.35,23.83,26.80,27.64,73.92,1002.52,2077.11,3461.89,3298.25,3590.38,1000.39,908.99,0.45,0000 0000 0000 0000 000000
2013-07-04 06:44:51,0.91,0.24,0.00,24.52,23.88,26.82,27.63,74.13,1002.48,2077.04,3458.95,3294.28,3586.41,1000.29,908.34,0.47,0000 0000 0000 0000 000000
2013-07-04 06:45:52,0.75,0.25,0.00,24.69,23.91,26.82,27.62,74.29,1002.48,2077.01,3456.57,3291.10,3583.23,1001.00,908.48,0.48,0000 0000 0000 0000 000000
2013-07-04 06:46:52,0.58,0.26,0.00,24.81,23.94,26.88,27.26,73.88,1002.51,2077.00,3454.98,3289.06,3581.09,999.50,906.78,0.50,0000 0000 0000 0000 000000
2013-07-04 06:47:52,0.41,0.26,0.00,24.88,23.97,26.92,28.09,74.67,1002.50,2077.00,3453.69,3287.54,3579.41,1002.63,909.51,0.52,0000 0000 0000 0000 000000
2013-07-04 06:48:53,0.29,0.27,0.00,24.91,23.99,26.97,27.96,74.50,1002.49,2076.97,3452.46,3286.24,3577.90,999.14,906.12,0.53,0000 0000 0000 0000 000000
2013-07-04 06:49:53,0.22,0.27,0.00,24.93,24.01,26.99,27.57,74.13,1002.49,2076.90,3451.22,3284.98,3576.50,1003.63,910.14,0.55,0000 0000 0000 0000 000000
2013-07-04 06:50:53,0.19,0.27,0.00,24.98,24.04,27.04,28.04,75.33,1002.48,2076.72,3449.99,3283.58,3575.01,1001.54,908.09,0.57,0000 0000 0000 0000 000000
2013-07-04 06:51:53,0.18,0.28,0.00,25.02,24.06,27.08,27.27,74.29,1002.51,2076.34,3448.88,3282.22,3573.51,1000.83,907.34,0.58,0000 0000 0000 0000 000000
2013-07-04 06:52:54,0.11,0.28,0.00,25.04,24.09,27.14,27.18,73.83,1002.52,2076.15,3447.92,3281.07,3572.23,999.52,906.09,0.60,0000 0000 0000 0000 000000
2013-07-04 06:53:54,0.13,0.28,0.00,25.09,24.11,27.19,27.37,73.96,1002.68,2076.06,3446.95,3279.92,3571.00,999.69,906.25,0.62,0000 0000 0000 0000 000000
2013-07-04 06:54:54,0.16,0.28,0.00,25.13,24.14,27.21,28.05,75.25,1002.86,2076.03,3445.84,3278.74,3569.70,1003.00,909.32,0.63,0000 0000 0000 0000 000000
2013-07-04 06:55:54,0.18,0.29,0.00,25.18,24.16,27.26,27.48,74.29,1002.91,2076.01,3444.81,3277.64,3568.56,1001.58,907.92,0.65,0000 0000 0000 0000 000000
2013-07-04 06:56:55,0.17,0.29,0.00,25.21,24.19,27.28,27.02,73.33,1002.92,2075.99,3444.01,3276.70,3567.49,999.79,905.33,0.67,0000 0000 0000 0000 000000
2013-07-04 06:57:55,0.15,0.29,0.00,25.25,24.21,27.31,27.06,73.71,1002.94,2075.99,3443.00,3275.79,3566.37,998.64,905.05,0.68,0000 0000 0000 0000 000000
2013-07-04 06:58:55,0.16,0.30,0.00,25.25,24.23,27.36,27.39,73.92,1002.93,2075.99,3442.14,3274.74,3565.34,1000.94,907.51,0.70,0000 0000 0000 0000 000000
2013-07-04 06:59:56,0.15,0.30,0.00,25.26,24.25,27.40,28.23,75.63,1002.94,2075.97,3441.14,3273.52,3564.02,1001.20,907.80,0.72,0000 0000 0000 0000 000000
2013-07-04 07:00:56,0.19,0.30,0.00,25.29,24.28,27.44,28.05,75.08,1002.94,2075.90,3440.12,3272.50,3562.86,1003.06,908.95,0.73,0000 0000 0000 0000 000000
2013-07-04 07:01:56,0.15,0.30,0.00,25.31,24.31,27.49,27.62,74.29,1002.94,2075.83,3439.15,3271.58,3561.94,996.34,904.43,0.75,0000 0000 0000 0000 000000
2013-07-04 07:02:57,0.13,0.31,0.00,25.32,24.33,27.51,26.98,73.33,1002.94,2075.58,3438.41,3270.70,3561.02,998.13,904.38,0.77,0000 0000 0000 0000 000000
2013-07-04 07:03:57,0.06,0.31,0.00,25.21,24.36,27.57,27.72,74.50,1002.94,2075.28,3437.80,3270.04,3560.18,1001.21,907.48,0.78,0000 0000 0000 0000 000000
2013-07-04 07:04:57,0.03,0.31,0.00,25.10,24.39,27.62,27.86,74.42,1002.94,2075.15,3436.96,3269.18,3559.22,998.96,905.79,0.80,0000 0000 0000 0000 000000
2013-07-04 07:05:57,0.11,0.31,0.00,25.11,24.42,27.65,28.07,74.96,1002.94,2075.07,3436.14,3268.26,3558.22,1000.42,907.09,0.82,0000 0000 0000 0000 000000
2013-07-04 07:06:58,0.16,0.31,0.00,25.15,24.44,27.69,27.16,73.04,1002.94,2075.03,3434.55,3266.38,3556.24,998.89,905.58,0.83,0000 0000 0000 0000 000000
2013-07-04 07:07:58,0.30,0.32,0.00,25.10,24.46,27.69,27.78,74.33,1002.94,2075.01,3432.45,3263.81,3553.63,1001.70,908.28,0.85,0000 0000 0000 0000 000000
2013-07-04 07:08:58,0.40,0.32,0.00,25.05,24.50,27.70,27.70,75.25,1002.94,2075.00,3429.17,3259.63,3549.04,998.79,905.77,0.87,0000 0000 0000 0000 000000
2013-07-04 07:09:58,0.81,0.34,0.00,25.04,24.55,27.76,27.21,74.38,1002.94,2074.99,3421.33,3249.66,3538.24,998.93,906.27,0.89,0000 0000 0000 0000 000000
2013-07-04 07:10:59,1.61,0.37,0.00,25.03,24.58,27.77,27.93,75.17,1002.94,2074.72,3415.45,3242.39,3530.60,1000.50,907.41,0.90,0000 0000 0000 0000 000000
2013-07-04 07:11:59,1.07,0.38,0.00,25.09,24.64,27.81,27.47,75.29,1002.94,2074.39,3410.42,3236.63,3524.38,999.01,905.87,0.92,0000 0000 0000 0000 000000
2013-07-04 07:12:59,0.77,0.39,0.00,25.11,24.68,27.86,27.90,75.71,1002.94,2074.22,3407.55,3233.13,3520.59,1001.02,907.65,0.94,0000 0000 0000 0000 000000
2013-07-04 07:13:59,0.47,0.40,0.00,25.14,24.72,27.89,28.24,76.08,1002.94,2074.08,3406.02,3231.27,3518.71,1000.63,908.01,0.95,0000 0000 0000 0000 000000
2013-07-04 07:15:00,0.23,0.41,0.00,25.11,24.75,27.92,27.27,74.54,1002.94,2074.03,3405.00,3230.20,3517.52,1000.04,906.64,0.97,0000 0000 0000 0000 000000
2013-07-04 07:16:00,0.15,0.41,0.00,25.13,24.79,27.94,27.06,73.88,1002.94,2074.01,3404.21,3229.38,3516.56,1001.02,908.11,0.99,0000 0000 0000 0000 000000
2013-07-04 07:17:00,0.14,0.41,0.00,25.15,24.81,27.97,27.32,74.21,1002.95,2073.99,3403.41,3228.59,3515.69,1000.80,907.10,1.00,0000 0000 0000 0000 000000
2013-07-04 07:18:01,0.13,0.41,0.00,25.17,24.84,28.00,27.39,74.29,1002.95,2073.96,3402.60,3227.78,3514.80,1000.88,907.33,1.02,0000 0000 0000 0000 000000
2013-07-04 07:19:01,0.10,0.42,0.00,25.13,24.86,27.99,27.11,73.63,1002.94,2073.87,3402.06,3227.20,3514.07,1001.27,908.91,1.04,0000 0000 0000 0000 000000
2013-07-04 07:20:01,0.07,0.42,0.00,25.07,24.88,27.99,27.39,74.13,1002.94,2073.63,3401.41,3226.52,3513.30,998.19,905.29,1.05,0000 0000 0000 0000 000000
2013-07-04 07:21:02,0.05,0.42,0.00,25.09,24.91,27.97,27.60,74.67,1002.94,2073.25,3400.67,3225.81,3512.51,998.47,905.38,1.07,0000 0000 0000 0000 000000
2013-07-04 07:22:02,0.02,0.42,0.00,25.03,24.93,28.00,27.63,74.79,1002.95,2073.13,3400.03,3225.18,3511.74,1000.72,907.59,1.09,0000 0000 0000 0000 000000
2013-07-04 07:23:02,0.07,0.42,0.00,25.04,24.95,28.01,27.55,74.67,1002.96,2073.05,3399.41,3224.49,3511.08,1000.03,906.94,1.10,0000 0000 0000 0000 000000
2013-07-04 07:24:03,0.08,0.42,0.00,25.02,24.97,28.04,28.14,75.25,1002.94,2073.01,3398.86,3223.98,3510.42,1001.67,908.51,1.12,0000 0000 0000 0000 000000
2013-07-04 07:25:03,0.08,0.42,0.00,25.11,24.98,28.03,27.42,74.21,1002.95,2073.00,3398.31,3223.39,3509.76,999.24,906.01,1.14,0000 0000 0000 0000 000000
2013-07-04 07:26:03,0.09,0.43,0.00,25.04,25.01,28.08,28.50,75.88,1002.95,2072.97,3397.73,3222.95,3509.25,1001.64,908.00,1.15,0000 0000 0000 0000 000000
2013-07-04 07:27:04,0.07,0.43,0.00,24.92,25.03,28.12,27.86,74.83,1002.94,2072.93,3397.27,3222.39,3508.64,1000.99,908.17,1.17,0000 0000 0000 0000 000000
2013-07-04 07:28:04,0.07,0.43,0.00,24.83,25.05,28.14,27.55,74.25,1002.96,2072.87,3396.72,3221.80,3508.01,999.02,906.67,1.19,0000 0000 0000 0000 000000
2013-07-04 07:29:04,0.12,0.43,0.00,24.79,25.07,28.15,27.72,74.42,1002.95,2072.69,3394.86,3219.72,3505.96,999.07,905.95,1.20,0000 0000 0000 0000 000000
2013-07-04 07:30:04,0.24,0.43,0.00,24.80,25.09,28.15,27.65,74.58,1002.94,2072.38,3393.67,3218.57,3504.69,998.93,906.67,1.22,0000 0000 0000 0000 000000
2013-07-04 07:31:05,0.13,0.44,0.00,24.82,25.12,28.15,27.89,75.21,1002.95,2072.18,3393.04,3217.74,3503.88,1001.57,908.09,1.24,0000 0000 0000 0000 000000
2013-07-04 07:32:05,0.06,0.44,0.00,24.80,25.14,28.17,27.78,74.92,1002.95,2072.07,3392.37,3217.16,3503.22,1001.02,908.87,1.25,0000 0000 0000 0000 000000
2013-07-04 07:33:05,0.08,0.44,0.00,24.87,25.16,28.19,27.77,74.54,1002.96,2072.02,3391.70,3216.48,3502.49,1001.22,908.57,1.27,0000 0000 0000 0000 000000
2013-07-04 07:34:06,0.09,0.44,0.00,24.96,25.19,28.20,27.43,74.25,1002.96,2072.01,3390.81,3215.40,3501.27,995.13,902.79,1.29,0000 0000 0000 0000 000000
2013-07-04 07:35:06,0.18,0.44,0.00,25.03,25.20,28.19,28.12,75.25,1002.95,2071.99,3389.26,3213.33,3498.77,1002.30,909.15,1.30,0000 0000 0000 0000 000000
2013-07-04 07:36:06,0.35,0.45,0.00,25.07,25.22,28.20,27.65,74.67,1002.96,2071.96,3388.37,3212.07,3497.18,1000.60,906.78,1.32,0000 0000 0000 0000 000000
2013-07-04 07:37:07,0.18,0.45,0.00,25.08,25.24,28.22,27.77,74.75,1002.95,2071.76,3387.60,3211.34,3496.29,999.86,906.70,1.34,0000 0000 0000 0000 000000
2013-07-04 07:38:07,0.06,0.45,0.00,25.17,25.26,28.23,27.83,74.88,1002.96,2071.49,3387.17,3210.97,3495.79,999.36,905.61,1.35,0000 0000 0000 0000 000000
2013-07-04 07:39:07,0.01,0.45,0.00,25.25,25.28,28.26,27.75,75.00,1002.96,2071.22,3386.61,3210.44,3495.30,998.97,905.38,1.37,0000 0000 0000 0000 000000
2013-07-04 07:40:08,0.02,0.45,0.00,25.27,25.29,28.29,27.80,74.67,1002.98,2071.10,3386.14,3209.99,3494.72,999.93,906.19,1.39,0000 0000 0000 0000 000000
2013-07-04 07:41:08,0.13,0.46,0.00,25.27,25.32,28.29,27.69,74.88,1002.97,2071.04,3384.76,3208.06,3492.72,1000.24,906.45,1.40,0000 0000 0000 0000 000000
2013-07-04 07:42:08,0.23,0.46,0.00,25.24,25.33,28.35,27.97,75.92,1002.96,2071.01,3383.84,3206.80,3491.34,998.10,904.56,1.42,0000 0000 0000 0000 000000
2013-07-04 07:43:09,0.18,0.46,0.00,25.28,25.35,28.39,27.78,75.29,1002.99,2071.00,3383.30,3206.21,3490.49,1000.36,906.57,1.44,0000 0000 0000 0000 000000
2013-07-04 07:44:09,0.10,0.47,0.00,25.34,25.37,28.39,27.35,74.42,1003.00,2070.97,3383.10,3205.67,3490.14,1000.36,906.39,1.45,0000 0000 0000 0000 000000
2013-07-04 07:45:09,0.05,0.47,0.00,25.33,25.39,28.39,27.63,74.96,1002.96,2070.95,3382.96,3205.27,3489.70,999.46,905.55,1.47,0000 0000 0000 0000 000000
2013-07-04 07:46:09,0.04,0.47,0.00,25.34,25.40,28.41,27.90,75.33,1002.98,2070.88,3382.47,3205.10,3489.30,1000.58,906.55,1.49,0000 0000 0000 0000 000000
2013-07-04 07:47:10,0.02,0.47,0.00,25.36,25.42,28.43,27.91,75.25,1002.97,2070.63,3382.16,3205.03,3489.11,1001.60,907.33,1.50,0000 0000 0000 0000 000000
2013-07-04 07:48:10,-0.05,0.47,0.00,25.42,25.42,28.46,27.47,74.50,1002.98,2070.28,3382.06,3204.94,3489.03,1000.31,906.05,1.52,0000 0000 0000 0000 000000
2013-07-04 07:49:10,-0.05,0.47,0.00,25.39,25.44,28.47,27.55,74.46,1002.96,2070.17,3382.02,3204.81,3489.00,1000.08,905.31,1.54,0000 0000 0000 0000 000000
2013-07-04 07:50:10,-0.01,0.47,0.00,25.38,25.45,28.53,27.67,74.42,1003.01,2070.06,3381.87,3204.41,3488.87,1000.39,906.28,1.56,0000 0000 0000 0000 000000
2013-07-04 07:51:11,0.02,0.47,0.00,25.32,25.47,28.53,27.68,74.79,1003.01,2070.02,3381.45,3204.16,3488.42,999.70,905.80,1.57,0000 0000 0000 0000 000000
2013-07-04 07:52:11,0.03,0.47,0.00,25.35,25.47,28.57,27.65,74.88,1003.01,2070.00,3381.17,3204.06,3488.17,1000.12,906.19,1.59,0000 0000 0000 0000 000000
2013-07-04 07:53:11,0.02,0.47,0.00,25.36,25.48,28.57,27.76,74.83,1003.00,2070.00,3381.06,3204.02,3488.06,1002.08,908.21,1.61,0000 0000 0000 0000 000000
2013-07-04 07:54:12,0.01,0.47,0.00,25.37,25.50,28.58,27.57,74.67,1003.04,2070.00,3381.00,3203.99,3488.02,1000.19,906.17,1.62,0000 0000 0000 0000 000000
2013-07-04 07:55:12,0.01,0.47,0.00,25.37,25.50,28.61,27.68,74.42,1003.07,2069.98,3380.84,3203.88,3487.97,999.64,905.70,1.64,0000 0000 0000 0000 000000
2013-07-04 07:56:12,0.01,0.47,0.00,25.41,25.52,28.61,27.52,74.42,1003.11,2069.95,3380.55,3203.68,3487.81,999.61,905.68,1.66,0000 0000 0000 0000 000000
2013-07-04 07:57:13,0.03,0.47,0.00,25.40,25.52,28.61,27.83,74.79,1003.17,2069.92,3380.30,3203.36,3487.40,1000.88,906.84,1.67,0000 0000 0000 0000 000000
2013-07-04 07:58:13,0.03,0.47,0.00,25.43,25.54,28.65,27.87,75.00,1003.17,2069.83,3380.11,3203.15,3487.15,1000.84,906.72,1.69,0000 0000 0000 0000 000000
2013-07-04 07:59:13,0.00,0.47,0.00,25.46,25.55,28.68,27.55,74.42,1003.26,2069.56,3380.04,3203.05,3487.05,1000.61,906.38,1.71,0000 0000 0000 0000 000000
2013-07-04 08:00:13,-0.05,0.47,0.00,25.47,25.56,28.69,27.62,74.71,1003.26,2069.31,3380.01,3203.02,3487.00,998.87,904.86,1.72,0000 0000 0000 0000 000000
2013-07-04 08:01:14,-0.06,0.47,0.00,25.48,25.57,28.71,27.87,74.71,1003.34,2069.18,3379.97,3203.00,3486.92,1000.33,906.24,1.74,0000 0000 0000 0000 000000
2013-07-04 08:02:14,-0.02,0.47,0.00,25.52,25.57,28.75,27.38,74.17,1003.30,2069.07,3379.81,3202.99,3486.64,999.93,905.87,1.76,0000 0000 0000 0000 000000
2013-07-04 08:03:14,-0.00,0.47,0.00,25.49,25.59,28.77,27.68,74.42,1003.30,2069.02,3379.35,3202.83,3486.28,998.92,904.91,1.77,0000 0000 0000 0000 000000
2013-07-04 08:04:15,0.03,0.47,0.00,25.53,25.60,28.77,27.77,74.71,1003.35,2069.00,3379.13,3202.46,3486.10,1001.28,907.54,1.79,0000 0000 0000 0000 000000
2013-07-04 08:05:15,0.03,0.47,0.00,25.52,25.61,28.81,27.77,74.54,1003.27,2069.00,3379.05,3202.24,3486.03,1000.45,906.18,1.81,0000 0000 0000 0000 000000
2013-07-04 08:06:15,0.02,0.47,0.00,25.52,25.62,28.81,27.39,74.33,1003.36,2069.00,3378.97,3202.09,3485.99,999.20,905.10,1.82,0000 0000 0000 0000 000000
2013-07-04 08:07:15,0.02,0.47,0.00,25.54,25.63,28.83,27.59,74.08,1003.39,2069.00,3378.70,3202.03,3485.91,1000.54,906.28,1.84,0000 0000 0000 0000 000000
2013-07-04 08:08:16,0.02,0.47,0.00,25.53,25.64,28.86,27.67,74.33,1003.38,2069.00,3378.39,3202.00,3485.56,998.65,904.62,1.86,0000 0000 0000 0000 000000
2013-07-04 08:09:16,0.02,0.47,0.00,25.54,25.65,28.89,27.88,74.46,1003.40,2069.00,3378.16,3201.98,3485.24,999.98,905.61,1.87,0000 0000 0000 0000 000000
2013-07-04 08:10:16,0.02,0.47,0.00,25.53,25.66,28.91,27.69,74.63,1003.42,2068.98,3378.06,3201.86,3485.10,1000.03,906.43,1.89,0000 0000 0000 0000 000000
2013-07-04 08:11:16,0.01,0.47,0.00,25.53,25.67,28.94,27.74,74.83,1003.42,2068.96,3378.02,3201.72,3485.04,999.92,905.79,1.91,0000 0000 0000 0000 000000
2013-07-04 08:12:17,0.02,0.47,0.00,25.52,25.69,28.93,27.47,74.25,1003.42,2068.96,3378.00,3201.42,3485.01,999.35,905.31,1.92,0000 0000 0000 0000 000000
2013-07-04 08:13:17,0.02,0.47,0.00,25.65,25.70,28.96,27.60,74.54,1003.38,2068.95,3377.97,3201.19,3484.99,1000.69,906.13,1.94,0000 0000 0000 0000 000000
2013-07-04 08:14:17,0.01,0.47,0.00,25.72,25.72,28.97,27.45,74.42,1003.40,2068.88,3377.80,3201.10,3484.89,999.77,905.05,1.96,0000 0000 0000 0000 000000
2013-07-04 08:15:17,0.00,0.47,0.00,25.62,25.72,29.00,27.98,74.63,1003.41,2068.91,3377.83,3201.04,3484.73,1000.99,906.47,1.97,0000 0000 0000 0000 000000
2013-07-04 08:16:18,0.02,0.47,0.00,25.56,25.74,29.01,27.37,74.17,1003.41,2068.82,3377.57,3201.01,3484.44,998.75,904.61,1.99,0000 0000 0000 0000 000000
2013-07-04 08:17:18,-0.00,0.47,0.00,25.49,25.76,29.04,27.48,74.25,1003.42,2068.51,3377.22,3200.97,3484.16,1000.18,906.14,2.01,0000 0000 0000 0000 000000
2013-07-04 08:18:18,-0.05,0.47,0.00,25.42,25.77,29.05,27.68,74.67,1003.43,2068.27,3377.08,3200.94,3484.06,999.20,904.94,2.02,0000 0000 0000 0000 000000
2013-07-04 08:19:18,-0.04,0.47,0.00,25.39,25.79,29.07,27.87,75.04,1003.42,2068.15,3377.02,3200.61,3484.01,1000.92,906.64,2.04,0000 0000 0000 0000 000000
2013-07-04 08:20:19,0.00,0.47,0.00,25.39,25.80,29.08,27.77,75.13,1003.43,2068.08,3376.97,3200.29,3483.94,999.61,906.69,2.06,0000 0000 0000 0000 000000
2013-07-04 08:21:19,0.00,0.47,0.00,25.50,25.82,29.11,27.78,74.79,1003.42,2068.03,3376.90,3200.12,3483.70,1000.56,906.47,2.07,0000 0000 0000 0000 000000
2013-07-04 08:22:19,0.01,0.47,0.00,25.49,25.83,29.14,27.81,74.88,1003.43,2068.01,3376.75,3200.04,3483.35,1000.41,906.35,2.09,0000 0000 0000 0000 000000
2013-07-04 08:23:19,0.02,0.47,0.00,25.48,25.84,29.13,27.84,74.67,1003.43,2068.00,3376.38,3200.01,3483.13,1000.92,906.96,2.11,0000 0000 0000 0000 000000
2013-07-04 08:24:20,0.02,0.47,0.00,25.53,25.86,29.13,27.64,74.67,1003.43,2068.00,3376.15,3199.99,3483.05,999.95,905.83,2.12,0000 0000 0000 0000 000000
2013-07-04 08:25:20,0.01,0.47,0.00,25.61,25.88,29.18,27.78,74.71,1003.43,2067.99,3376.05,3199.94,3483.00,1000.04,905.79,2.14,0000 0000 0000 0000 000000
2013-07-04 08:26:20,0.01,0.47,0.00,25.55,25.90,29.19,27.73,75.00,1003.43,2067.98,3376.02,3199.74,3482.98,1000.47,906.23,2.16,0000 0000 0000 0000 000000
2013-07-04 08:27:20,0.00,0.47,0.00,25.49,25.91,29.21,27.75,74.63,1003.43,2067.98,3375.99,3199.61,3482.99,1001.29,907.15,2.17,0000 0000 0000 0000 000000
2013-07-04 08:28:21,0.00,0.47,0.00,25.37,25.93,29.24,27.64,74.54,1003.43,2067.94,3375.98,3199.34,3482.88,1000.25,906.76,2.19,0000 0000 0000 0000 000000
2013-07-04 08:29:21,0.01,0.47,0.00,25.43,25.94,29.26,27.42,74.42,1003.43,2067.90,3375.87,3199.15,3482.63,998.45,904.32,2.21,0000 0000 0000 0000 000000
2013-07-04 08:30:21,0.01,0.47,0.00,25.41,25.96,29.29,27.56,74.71,1003.43,2067.79,3375.59,3199.05,3482.26,999.08,905.99,2.22,0000 0000 0000 0000 000000
2013-07-04 08:31:21,-0.01,0.47,0.00,25.33,25.98,29.32,27.82,74.96,1003.43,2067.51,3375.29,3199.01,3482.11,1000.79,907.21,2.24,0000 0000 0000 0000 000000
2013-07-04 08:32:22,-0.05,0.47,0.00,25.26,26.00,29.33,27.70,74.96,1003.43,2067.22,3375.10,3199.00,3482.04,1000.67,907.31,2.26,0000 0000 0000 0000 000000
2013-07-04 08:33:22,-0.05,0.47,0.00,25.25,26.02,29.39,27.60,74.71,1003.43,2067.10,3375.04,3198.99,3481.99,1000.08,906.80,2.27,0000 0000 0000 0000 000000
2013-07-04 08:34:22,-0.02,0.47,0.00,25.30,26.03,29.40,27.76,75.17,1003.43,2067.07,3375.00,3198.96,3481.84,1000.75,907.24,2.29,0000 0000 0000 0000 000000
2013-07-04 08:35:23,0.00,0.47,0.00,25.34,26.05,29.41,28.16,75.29,1003.43,2067.05,3374.86,3198.82,3481.62,1001.45,907.79,2.31,0000 0000 0000 0000 000000
2013-07-04 08:36:23,0.03,0.47,0.00,25.43,26.07,29.44,27.65,75.17,1003.43,2067.04,3374.46,3198.38,3481.28,998.18,904.52,2.33,0000 0000 0000 0000 000000
2013-07-04 08:37:23,0.04,0.47,0.00,25.40,26.08,29.44,27.96,75.13,1003.43,2067.01,3374.21,3198.16,3481.10,1000.24,906.50,2.34,0000 0000 0000 0000 000000
2013-07-04 08:38:24,0.03,0.47,0.00,25.43,26.10,29.47,27.97,75.38,1003.43,2067.00,3374.09,3198.05,3481.04,1001.03,907.12,2.36,0000 0000 0000 0000 000000
2013-07-04 08:39:24,0.01,0.47,0.00,25.48,26.12,29.47,27.51,74.71,1003.43,2067.00,3374.01,3198.01,3481.00,998.42,904.61,2.38,0000 0000 0000 0000 000000
2013-07-04 08:40:24,0.00,0.47,0.00,25.48,26.13,29.49,27.95,75.13,1003.43,2067.00,3373.84,3197.99,3480.84,999.88,905.85,2.39,0000 0000 0000 0000 000000
2013-07-04 08:41:25,0.01,0.47,0.00,25.49,26.15,29.50,27.71,74.92,1003.43,2067.00,3373.51,3197.90,3480.46,1000.56,906.05,2.41,0000 0000 0000 0000 000000
2013-07-04 08:42:25,0.03,0.47,0.00,25.56,26.17,29.53,27.98,75.13,1003.43,2067.00,3373.21,3197.50,3480.20,1000.98,906.69,2.43,0000 0000 0000 0000 000000
2013-07-04 08:43:25,0.05,0.47,0.00,25.54,26.18,29.55,27.78,74.88,1003.43,2066.98,3373.08,3197.20,3480.07,998.97,904.93,2.44,0000 0000 0000 0000 000000
2013-07-04 08:44:25,0.03,0.47,0.00,25.50,26.19,29.56,27.73,74.71,1003.43,2066.96,3373.03,3197.08,3480.03,1001.38,907.63,2.46,0000 0000 0000 0000 000000
2013-07-04 08:45:26,0.01,0.47,0.00,25.64,26.20,29.57,27.48,74.63,1003.43,2066.92,3372.97,3197.03,3480.00,998.18,903.72,2.48,0000 0000 0000 0000 000000
2013-07-04 08:46:26,0.00,0.47,0.00,25.72,26.22,29.61,27.73,74.67,1003.43,2066.77,3372.57,3197.00,3479.82,1000.24,905.92,2.49,0000 0000 0000 0000 000000
2013-07-04 08:47:26,-0.01,0.47,0.00,25.74,26.22,29.62,27.76,74.54,1003.43,2066.61,3372.23,3196.99,3479.53,1000.84,906.18,2.51,0000 0000 0000 0000 000000
2013-07-04 08:48:26,-0.03,0.47,0.00,25.75,26.24,29.63,27.76,74.88,1003.43,2066.37,3372.10,3196.98,3479.29,999.85,905.38,2.53,0000 0000 0000 0000 000000
2013-07-04 08:49:26,-0.02,0.47,0.00,25.65,26.25,29.65,27.85,74.63,1003.43,2066.22,3372.04,3196.82,3479.11,1000.36,906.26,2.54,0000 0000 0000 0000 000000
2013-07-04 08:50:27,-0.02,0.47,0.00,25.58,26.26,29.68,27.70,74.58,1003.43,2066.09,3372.00,3196.45,3479.04,1000.00,905.71,2.56,0000 0000 0000 0000 000000
2013-07-04 08:51:27,0.00,0.47,0.00,25.58,26.27,29.69,27.62,74.75,1003.43,2066.07,3371.97,3196.18,3479.00,999.94,905.66,2.58,0000 0000 0000 0000 000000
2013-07-04 08:52:27,0.00,0.47,0.00,25.65,26.28,29.70,27.72,74.54,1003.44,2066.03,3371.95,3196.07,3478.99,999.60,905.17,2.59,0000 0000 0000 0000 000000
2013-07-04 08:53:27,0.00,0.47,0.00,25.63,26.30,29.73,27.89,74.92,1003.43,2066.01,3371.79,3196.03,3478.80,1001.91,907.30,2.61,0000 0000 0000 0000 000000
2013-07-04 08:54:28,0.02,0.47,0.00,25.61,26.31,29.73,27.79,74.67,1003.43,2066.00,3371.44,3196.01,3478.42,1000.64,906.20,2.63,0000 0000 0000 0000 000000